Location: Claremont
(33.9858°S, 18.4575°E)
Time: 09:46:56
(UTC+00:00)

USA 267 - Pass Details

Date: 03 March 2021
Orbit: 1099 x 1108 km, 123.0° (Epoch: 20 March)

Event Time Altitude Azimuth Distance (km) Brightness Sun altitude
Exits shadow 19:21:22 36° 111° (ESE) 1,696 3.9 -24.8°
Maximum altitude 19:22:58 41° 143° (SE) 1,560 3.9 -25.1°
Drops below altitude 10° 19:29:03 10° 210° (SSW) 2,991 6.3 -26.2°
Sets 19:31:41 0° 216° (SW) 3,954 7.2 -26.7°
